Location: Briis
(48.6240°N, 2.1211°E)
Time: 10:56:33
(UTC+00:00)

Cosmos 1484 Rocket - Pass Details

Date: 25 September 2020
Orbit: 506 x 558 km, 97.4° (Epoch: 25 October)

Event Time Altitude Azimuth Distance (km) Brightness Sun altitude
Rises 04:26:26 0° 15° (NNE) 2,748 6.8 -13.3°
Reaches altitude 10° 04:28:35 10° 18° (NNE) 1,852 5.9 -13.0°
Maximum altitude 04:32:35 65° 101° (E) 620 3.3 -12.3°
Drops below altitude 10° 04:36:33 10° 184° (S) 1,842 5.3 -11.7°
Sets 04:38:41 0° 187° (S) 2,731 6.2 -11.4°
